Торри Пайнс

США     32°53′25″N   117°15′03″W
темп.,
°C
ветер,
м/с
пор.,
м/с
влажн.,
%
обл.,
%
осадки,
мм/ч
давл.,
гПа
погр.,
м
19 апреля, пн
пн1923:00+18зсз23640 0.0 101670
02:00+17в01660 0.0 101511
05:00+17в11410 0.0 101511
08:00+18ююв00420 0.0 101634
11:00+22з32390 0.0 1016298
14:00+22з44440 0.0 1015292
17:00+20з34560 0.0 1014268
20:00+17юз22710 0.0 1014119
20 апреля, вт
вт2023:00+16юз23770 0.0 1014171
02:00+15ююз22800 0.0 1013176
05:00+14ююз23830 0.0 1013238
08:00+15ююз34772 0.0 1014386
11:00+18ююз56593 0.0 1014547
14:00+18юз67617 0.0 1012598
17:00+17ююз666536 0.0 1012664
20:00+15ю567675 0.1 1012668
21 апреля, ср
ср2123:00+15ю5673100 0.2 1013882
02:00+14ю6672100 0.2 1012952
05:00+14юз5572100 0.4 1012905
08:00+13ююз5574100 0.2 1013730
11:00+14ююз5574100 0.5 1014916
14:00+15юз557073 0.3 1013951
17:00+15зюз447087 0.3 1013901
20:00+14юз3376100 0.1 1013499
22 апреля, чт
чт2223:00+14юз2376100 0.3 1014479
02:00+14з2279100 0.3 1013420
05:00+14зюз2278100 0.4 1012402
08:00+14ююз1177100 0.3 1014373
11:00+15юз326699 0.3 1014919
14:00+15зюз446688 0.0 1014834
17:00+15з437127 0.0 1013686
20:00+15зсз337463 0.0 1014623
23 апреля, пт
пт2323:00+15з217457 0.0 1015523
02:00+14з2273100 0.0 1015711
05:00+14з1176100 0.1 1015270
08:00+15з117196 0.1 1016441
11:00+16з426551 0.1 1016727
14:00+17з53677 0.0 1016658
17:00+16з43684 0.0 1016610
20:00+14з327650 0.0 1017529